Time,TemperatureF,DewpointF,PressureIn,WindDirection,WindDirectionDegrees,WindSpeedMPH,WindSpeedGustMPH,Humidity,HourlyPrecipIn,Conditions,Clouds,dailyrainin,SoftwareType,DateUTC
2013-02-28 00:02:00,47.0,42.0,29.84,West,264,1.0,5.0,82,0.00,,,0.00,,2013-02-28 05:02:00,
2013-02-28 00:11:00,47.0,42.0,29.84,West,264,1.0,5.0,82,0.00,,,0.00,,2013-02-28 05:11:00,
2013-02-28 00:22:00,47.0,42.0,29.84,SW,235,0.0,4.0,82,0.00,,,0.00,,2013-02-28 05:22:00,
2013-02-28 00:32:00,47.0,42.0,29.83,WSW,250,1.0,2.0,82,0.00,,,0.00,,2013-02-28 05:32:00,
2013-02-28 00:42:00,47.0,42.0,29.83,WSW,250,1.0,2.0,82,0.00,,,0.00,,2013-02-28 05:42:00,
2013-02-28 00:52:00,47.0,42.0,29.83,WSW,250,1.0,3.0,83,0.00,,,0.00,,2013-02-28 05:52:00,
2013-02-28 01:01:00,46.0,41.0,29.83,WSW,240,1.0,2.0,84,0.00,,,0.00,,2013-02-28 06:01:00,
2013-02-28 01:11:00,46.0,41.0,29.83,WSW,240,1.0,2.0,84,0.00,,,0.00,,2013-02-28 06:11:00,
2013-02-28 01:22:00,46.0,41.0,29.83,WSW,257,0.0,4.0,84,0.00,,,0.00,,2013-02-28 06:22:00,
2013-02-28 01:32:00,46.0,41.0,29.83,SW,232,1.0,5.0,84,0.00,,,0.00,,2013-02-28 06:32:00,
2013-02-28 01:42:00,46.0,41.0,29.83,SW,232,1.0,5.0,84,0.00,,,0.00,,2013-02-28 06:42:00,
2013-02-28 01:52:00,46.0,41.0,29.83,WSW,238,1.0,2.0,84,0.00,,,0.00,,2013-02-28 06:52:00,
2013-02-28 02:01:00,46.0,41.0,29.83,West,259,1.0,2.0,84,0.00,,,0.00,,2013-02-28 07:01:00,
2013-02-28 02:11:00,46.0,41.0,29.83,West,259,1.0,2.0,84,0.00,,,0.00,,2013-02-28 07:11:00,
2013-02-28 02:21:00,45.0,40.0,29.82,SW,229,2.0,3.0,84,0.00,,,0.00,,2013-02-28 07:21:00,
2013-02-28 02:32:00,46.0,41.0,29.82,West,268,1.0,3.0,84,0.00,,,0.00,,2013-02-28 07:32:00,
2013-02-28 02:42:00,46.0,41.0,29.82,West,268,1.0,3.0,84,0.00,,,0.00,,2013-02-28 07:42:00,
2013-02-28 02:52:00,46.0,41.0,29.81,SW,215,2.0,5.0,83,0.00,,,0.00,,2013-02-28 07:52:00,
2013-02-28 03:01:00,45.0,40.0,29.81,West,259,1.0,3.0,83,0.00,,,0.00,,2013-02-28 08:01:00,
2013-02-28 03:11:00,45.0,40.0,29.81,West,259,1.0,3.0,83,0.00,,,0.00,,2013-02-28 08:11:00,
2013-02-28 03:22:00,45.0,40.0,29.81,West,260,1.0,3.0,84,0.00,,,0.00,,2013-02-28 08:22:00,
2013-02-28 03:32:00,44.0,40.0,29.81,SW,236,0.0,1.0,85,0.00,,,0.00,,2013-02-28 08:32:00,
2013-02-28 03:42:00,44.0,40.0,29.81,SW,236,0.0,1.0,85,0.00,,,0.00,,2013-02-28 08:42:00,
2013-02-28 03:53:00,44.0,40.0,29.81,SW,231,1.0,3.0,86,0.00,,,0.00,,2013-02-28 08:53:00,
2013-02-28 04:03:00,44.0,40.0,29.81,SW,235,1.0,4.0,85,0.00,,,0.00,,2013-02-28 09:03:00,
2013-02-28 04:12:00,44.0,40.0,29.81,SW,235,1.0,4.0,85,0.00,,,0.00,,2013-02-28 09:12:00,
2013-02-28 04:22:00,44.0,40.0,29.81,WSW,242,1.0,2.0,85,0.00,,,0.00,,2013-02-28 09:22:00,
2013-02-28 04:32:00,44.0,40.0,29.81,SW,215,1.0,2.0,85,0.00,,,0.00,,2013-02-28 09:32:00,
2013-02-28 04:42:00,44.0,40.0,29.81,SW,215,1.0,2.0,85,0.00,,,0.00,,2013-02-28 09:42:00,
2013-02-28 04:52:00,44.0,40.0,29.80,SW,222,0.0,2.0,86,0.00,,,0.00,,2013-02-28 09:52:00,
2013-02-28 05:02:00,43.0,39.0,29.81,WSW,242,0.0,1.0,86,0.00,,,0.00,,2013-02-28 10:02:00,
2013-02-28 05:11:00,43.0,39.0,29.82,WSW,248,1.0,2.0,87,0.00,,,0.00,,2013-02-28 10:11:00,
2013-02-28 05:22:00,43.0,39.0,29.82,WSW,248,1.0,2.0,87,0.00,,,0.00,,2013-02-28 10:22:00,
2013-02-28 05:32:00,43.0,39.0,29.82,WSW,255,1.0,5.0,86,0.00,,,0.00,,2013-02-28 10:32:00,
2013-02-28 05:42:00,43.0,39.0,29.82,WSW,255,1.0,5.0,86,0.00,,,0.00,,2013-02-28 10:42:00,
2013-02-28 05:52:00,43.0,39.0,29.83,SW,229,1.0,4.0,86,0.00,,,0.00,,2013-02-28 10:52:00,
2013-02-28 06:02:00,43.0,39.0,29.83,SW,235,1.0,2.0,86,0.00,,,0.00,,2013-02-28 11:02:00,
2013-02-28 06:11:00,43.0,39.0,29.83,SW,235,1.0,2.0,86,0.00,,,0.00,,2013-02-28 11:11:00,
2013-02-28 06:22:00,42.0,38.0,29.83,SW,222,1.0,1.0,86,0.00,,,0.00,,2013-02-28 11:22:00,
2013-02-28 06:32:00,42.0,38.0,29.83,WSW,257,1.0,3.0,87,0.00,,,0.00,,2013-02-28 11:32:00,
2013-02-28 06:42:00,42.0,38.0,29.83,WSW,257,1.0,3.0,87,0.00,,,0.00,,2013-02-28 11:42:00,
2013-02-28 06:52:00,41.0,38.0,29.84,SW,235,1.0,1.0,88,0.00,,,0.00,,2013-02-28 11:52:00,
2013-02-28 07:02:00,41.0,38.0,29.85,SW,231,1.0,5.0,88,0.00,,,0.00,,2013-02-28 12:02:00,
2013-02-28 07:11:00,41.0,38.0,29.85,SW,231,1.0,5.0,88,0.00,,,0.00,,2013-02-28 12:11:00,
2013-02-28 07:22:00,41.0,38.0,29.85,SW,226,0.0,2.0,88,0.00,,,0.00,,2013-02-28 12:22:00,
2013-02-28 07:32:00,41.0,38.0,29.85,SW,229,0.0,3.0,88,0.00,,,0.00,,2013-02-28 12:32:00,
2013-02-28 07:42:00,41.0,38.0,29.85,SW,229,0.0,3.0,88,0.00,,,0.00,,2013-02-28 12:42:00,
2013-02-28 07:52:00,41.0,38.0,29.86,SW,229,0.0,0.0,89,0.00,,,0.00,,2013-02-28 12:52:00,
2013-02-28 08:02:00,41.0,38.0,29.86,WSW,252,1.0,2.0,89,0.00,,,0.00,,2013-02-28 13:02:00,
2013-02-28 08:11:00,42.0,38.0,29.87,SW,215,1.0,3.0,87,0.00,,,0.00,,2013-02-28 13:11:00,
2013-02-28 08:22:00,42.0,38.0,29.87,SW,215,1.0,3.0,87,0.00,,,0.00,,2013-02-28 13:22:00,
2013-02-28 08:32:00,44.0,39.0,29.88,WSW,253,3.0,5.0,83,0.00,,,0.00,,2013-02-28 13:32:00,
2013-02-28 08:42:00,44.0,39.0,29.88,WSW,253,3.0,5.0,83,0.00,,,0.00,,2013-02-28 13:42:00,
2013-02-28 08:52:00,46.0,39.0,29.88,WSW,250,2.0,7.0,77,0.00,,,0.00,,2013-02-28 13:52:00,
2013-02-28 09:02:00,47.0,38.0,29.88,WSW,240,2.0,6.0,72,0.00,,,0.00,,2013-02-28 14:02:00,
2013-02-28 09:11:00,48.0,37.0,29.88,WSW,253,4.0,9.0,66,0.00,,,0.00,,2013-02-28 14:11:00,
2013-02-28 09:22:00,48.0,37.0,29.88,WSW,253,4.0,9.0,66,0.00,,,0.00,,2013-02-28 14:22:00,
2013-02-28 09:32:00,49.0,37.0,29.88,SW,224,2.0,6.0,63,0.00,,,0.00,,2013-02-28 14:32:00,
2013-02-28 09:42:00,50.0,36.0,29.88,NNW,347,4.0,8.0,58,0.00,,,0.00,,2013-02-28 14:42:00,
2013-02-28 09:52:00,50.0,36.0,29.88,NNW,347,4.0,8.0,58,0.00,,,0.00,,2013-02-28 14:52:00,
2013-02-28 10:02:00,50.0,35.0,29.88,West,262,0.0,6.0,57,0.00,,,0.00,,2013-02-28 15:02:00,
2013-02-28 10:11:00,50.0,35.0,29.88,West,262,0.0,6.0,57,0.00,,,0.00,,2013-02-28 15:11:00,
2013-02-28 10:22:00,52.0,35.0,29.88,SSW,204,2.0,7.0,53,0.00,,,0.00,,2013-02-28 15:22:00,
2013-02-28 10:32:00,52.0,34.0,29.88,SW,224,3.0,10.0,51,0.00,,,0.00,,2013-02-28 15:32:00,
2013-02-28 10:42:00,52.0,34.0,29.88,SW,224,3.0,10.0,51,0.00,,,0.00,,2013-02-28 15:42:00,
2013-02-28 10:52:00,53.0,34.0,29.87,WNW,301,3.0,9.0,48,0.00,,,0.00,,2013-02-28 15:52:00,
2013-02-28 11:02:00,54.0,34.0,29.87,SSW,204,2.0,6.0,46,0.00,,,0.00,,2013-02-28 16:02:00,
2013-02-28 11:12:00,54.0,34.0,29.87,SSW,204,2.0,6.0,46,0.00,,,0.00,,2013-02-28 16:12:00,
2013-02-28 11:22:00,54.0,35.0,29.87,WNW,299,2.0,12.0,48,0.00,,,0.00,,2013-02-28 16:22:00,
2013-02-28 11:32:00,55.0,35.0,29.86,North,360,2.0,7.0,47,0.00,,,0.00,,2013-02-28 16:32:00,
2013-02-28 11:42:00,55.0,35.0,29.86,North,360,2.0,7.0,47,0.00,,,0.00,,2013-02-28 16:42:00,
2013-02-28 11:53:00,56.0,36.0,29.86,NNW,339,2.0,7.0,47,0.00,,,0.00,,2013-02-28 16:53:00,
2013-02-28 12:02:00,56.0,35.0,29.85,WNW,287,2.0,7.0,45,0.00,,,0.00,,2013-02-28 17:02:00,
2013-02-28 12:12:00,56.0,35.0,29.85,West,259,2.0,7.0,45,0.00,,,0.00,,2013-02-28 17:12:00,
2013-02-28 12:22:00,56.0,35.0,29.85,West,259,2.0,7.0,45,0.00,,,0.00,,2013-02-28 17:22:00,
2013-02-28 12:32:00,57.0,36.0,29.85,WSW,250,2.0,16.0,45,0.00,,,0.00,,2013-02-28 17:32:00,
2013-02-28 12:42:00,57.0,36.0,29.85,WSW,250,2.0,16.0,45,0.00,,,0.00,,2013-02-28 17:42:00,
2013-02-28 12:53:00,58.0,35.0,29.85,WSW,240,2.0,7.0,42,0.00,,,0.00,,2013-02-28 17:53:00,
2013-02-28 13:02:00,58.0,36.0,29.85,NW,326,2.0,7.0,43,0.00,,,0.00,,2013-02-28 18:02:00,
2013-02-28 13:12:00,59.0,37.0,29.84,NW,311,2.0,11.0,43,0.00,,,0.00,,2013-02-28 18:12:00,
2013-02-28 13:22:00,59.0,37.0,29.84,NW,311,2.0,11.0,43,0.00,,,0.00,,2013-02-28 18:22:00,
2013-02-28 13:32:00,57.0,36.0,29.83,NNW,333,2.0,9.0,45,0.00,,,0.00,,2013-02-28 18:32:00,
2013-02-28 13:42:00,57.0,36.0,29.83,NNW,333,2.0,9.0,45,0.00,,,0.00,,2013-02-28 18:42:00,
2013-02-28 13:52:00,58.0,37.0,29.83,North,6,2.0,6.0,45,0.00,,,0.00,,2013-02-28 18:52:00,
2013-02-28 14:02:00,56.0,36.0,29.82,NNW,332,2.0,9.0,46,0.00,,,0.00,,2013-02-28 19:02:00,
2013-02-28 14:12:00,56.0,36.0,29.82,NNW,332,2.0,9.0,46,0.00,,,0.00,,2013-02-28 19:12:00,
2013-02-28 14:22:00,56.0,36.0,29.82,SW,232,2.0,10.0,47,0.00,,,0.00,,2013-02-28 19:22:00,
2013-02-28 14:32:00,58.0,36.0,29.82,WNW,296,3.0,10.0,44,0.00,,,0.00,,2013-02-28 19:32:00,
2013-02-28 14:42:00,58.0,36.0,29.82,WNW,296,3.0,10.0,44,0.00,,,0.00,,2013-02-28 19:42:00,
2013-02-28 14:52:00,57.0,36.0,29.82,NNW,338,2.0,8.0,45,0.00,,,0.00,,2013-02-28 19:52:00,
2013-02-28 15:01:00,58.0,36.0,29.83,NW,315,3.0,6.0,44,0.00,,,0.00,,2013-02-28 20:01:00,
2013-02-28 15:12:00,58.0,36.0,29.83,NW,315,3.0,6.0,44,0.00,,,0.00,,2013-02-28 20:12:00,
2013-02-28 15:22:00,58.0,37.0,29.83,NW,318,2.0,5.0,45,0.00,,,0.00,,2013-02-28 20:22:00,
2013-02-28 15:32:00,59.0,38.0,29.82,WSW,238,3.0,4.0,45,0.00,,,0.00,,2013-02-28 20:32:00,
2013-02-28 15:42:00,59.0,38.0,29.82,WSW,238,3.0,4.0,45,0.00,,,0.00,,2013-02-28 20:42:00,
2013-02-28 15:52:00,59.0,37.0,29.82,NW,316,3.0,8.0,43,0.00,,,0.00,,2013-02-28 20:52:00,
2013-02-28 16:02:00,57.0,36.0,29.83,WNW,302,3.0,9.0,45,0.00,,,0.00,,2013-02-28 21:02:00,
2013-02-28 16:11:00,57.0,36.0,29.83,WNW,302,3.0,9.0,45,0.00,,,0.00,,2013-02-28 21:11:00,
2013-02-28 16:22:00,57.0,37.0,29.82,NW,311,1.0,4.0,47,0.00,,,0.00,,2013-02-28 21:22:00,
2013-02-28 16:32:00,56.0,36.0,29.83,West,278,3.0,7.0,47,0.00,,,0.00,,2013-02-28 21:32:00,
2013-02-28 16:42:00,56.0,36.0,29.83,West,278,3.0,7.0,47,0.00,,,0.00,,2013-02-28 21:42:00,
2013-02-28 16:52:00,55.0,37.0,29.82,West,276,2.0,7.0,50,0.00,,,0.00,,2013-02-28 21:52:00,
2013-02-28 17:01:00,55.0,37.0,29.83,SE,143,2.0,8.0,50,0.00,,,0.00,,2013-02-28 22:01:00,
2013-02-28 17:11:00,55.0,37.0,29.83,SE,143,2.0,8.0,50,0.00,,,0.00,,2013-02-28 22:11:00,
2013-02-28 17:22:00,54.0,36.0,29.83,NW,311,1.0,6.0,50,0.00,,,0.00,,2013-02-28 22:22:00,
2013-02-28 17:32:00,54.0,38.0,29.83,WSW,256,0.0,3.0,54,0.00,,,0.00,,2013-02-28 22:32:00,
2013-02-28 17:42:00,54.0,38.0,29.83,WSW,256,0.0,3.0,54,0.00,,,0.00,,2013-02-28 22:42:00,
2013-02-28 17:52:00,53.0,38.0,29.84,WNW,300,1.0,4.0,56,0.00,,,0.00,,2013-02-28 22:52:00,
2013-02-28 18:01:00,52.0,36.0,29.84,South,187,1.0,5.0,55,0.00,,,0.00,,2013-02-28 23:01:00,
2013-02-28 18:11:00,51.0,37.0,29.85,NW,314,0.0,4.0,58,0.00,,,0.00,,2013-02-28 23:11:00,
2013-02-28 18:22:00,51.0,37.0,29.85,NW,314,0.0,4.0,58,0.00,,,0.00,,2013-02-28 23:22:00,
2013-02-28 18:32:00,50.0,38.0,29.86,NW,313,0.0,1.0,62,0.00,,,0.00,,2013-02-28 23:32:00,
2013-02-28 18:42:00,50.0,38.0,29.86,NW,313,0.0,1.0,62,0.00,,,0.00,,2013-02-28 23:42:00,
2013-02-28 18:53:00,49.0,38.0,29.87,South,190,0.0,2.0,65,0.00,,,0.00,,2013-02-28 23:53:00,
2013-02-28 19:02:00,48.0,37.0,29.88,ESE,106,1.0,2.0,66,0.00,,,0.00,,2013-03-01 00:02:00,
2013-02-28 19:11:00,48.0,37.0,29.88,ESE,106,1.0,2.0,66,0.00,,,0.00,,2013-03-01 00:11:00,
2013-02-28 19:22:00,48.0,36.0,29.88,SW,215,0.0,3.0,64,0.00,,,0.00,,2013-03-01 00:22:00,
2013-02-28 19:32:00,47.0,36.0,29.89,WNW,287,0.0,2.0,66,0.00,,,0.00,,2013-03-01 00:32:00,
2013-02-28 19:42:00,47.0,36.0,29.89,WNW,287,0.0,2.0,66,0.00,,,0.00,,2013-03-01 00:42:00,
2013-02-28 19:52:00,46.0,35.0,29.89,WNW,287,0.0,1.0,66,0.00,,,0.00,,2013-03-01 00:52:00,
2013-02-28 20:01:00,45.0,35.0,29.89,WSW,245,0.0,1.0,68,0.00,,,0.00,,2013-03-01 01:01:00,
2013-02-28 20:11:00,44.0,34.0,29.89,SSW,213,1.0,2.0,69,0.00,,,0.00,,2013-03-01 01:11:00,
2013-02-28 20:22:00,44.0,34.0,29.89,SSW,213,1.0,2.0,69,0.00,,,0.00,,2013-03-01 01:22:00,
2013-02-28 20:32:00,44.0,35.0,29.90,SW,214,0.0,1.0,71,0.00,,,0.00,,2013-03-01 01:32:00,
2013-02-28 20:42:00,44.0,35.0,29.90,SW,214,0.0,1.0,71,0.00,,,0.00,,2013-03-01 01:42:00,
2013-02-28 20:52:00,43.0,34.0,29.90,SW,214,0.0,1.0,69,0.00,,,0.00,,2013-03-01 01:52:00,
2013-02-28 21:01:00,42.0,33.0,29.90,SW,231,1.0,1.0,71,0.00,,,0.00,,2013-03-01 02:01:00,
2013-02-28 21:11:00,42.0,34.0,29.90,SSW,194,0.0,1.0,72,0.00,,,0.00,,2013-03-01 02:11:00,
2013-02-28 21:21:00,42.0,34.0,29.90,SSW,194,0.0,1.0,72,0.00,,,0.00,,2013-03-01 02:21:00,
2013-02-28 21:32:00,41.0,33.0,29.91,SSW,194,0.0,0.0,72,0.00,,,0.00,,2013-03-01 02:32:00,
2013-02-28 21:42:00,41.0,33.0,29.91,SSW,194,0.0,0.0,72,0.00,,,0.00,,2013-03-01 02:42:00,
2013-02-28 21:52:00,40.0,32.0,29.91,SSW,194,0.0,1.0,73,0.00,,,0.00,,2013-03-01 02:52:00,
2013-02-28 22:02:00,40.0,33.0,29.92,SSW,203,0.0,1.0,77,0.00,,,0.00,,2013-03-01 03:02:00,
2013-02-28 22:11:00,39.0,33.0,29.92,WSW,240,1.0,2.0,79,0.00,,,0.00,,2013-03-01 03:11:00,
2013-02-28 22:22:00,39.0,33.0,29.92,WSW,240,1.0,2.0,79,0.00,,,0.00,,2013-03-01 03:22:00,
2013-02-28 22:32:00,39.0,33.0,29.92,SE,124,0.0,2.0,78,0.00,,,0.00,,2013-03-01 03:32:00,
2013-02-28 22:42:00,39.0,33.0,29.92,SE,124,0.0,2.0,78,0.00,,,0.00,,2013-03-01 03:42:00,
2013-02-28 22:52:00,40.0,32.0,29.93,WNW,288,1.0,5.0,72,0.00,,,0.00,,2013-03-01 03:52:00,
2013-02-28 23:01:00,41.0,32.0,29.93,WNW,293,1.0,2.0,71,0.00,,,0.00,,2013-03-01 04:01:00,
2013-02-28 23:11:00,41.0,32.0,29.93,WNW,293,1.0,2.0,71,0.00,,,0.00,,2013-03-01 04:11:00,
2013-02-28 23:22:00,42.0,32.0,29.91,WSW,246,1.0,4.0,68,0.00,,,0.00,,2013-03-01 04:22:00,
2013-02-28 23:32:00,41.0,31.0,29.93,East,98,1.0,3.0,68,0.00,,,0.00,,2013-03-01 04:32:00,
2013-02-28 23:42:00,41.0,31.0,29.93,East,98,1.0,3.0,68,0.00,,,0.00,,2013-03-01 04:42:00,
2013-02-28 23:52:00,41.0,32.0,29.92,NE,46,1.0,3.0,70,0.00,,,0.00,,2013-03-01 04:52:00,